TimeCET,TemperatureF,Dew PointF,Humidity,Sea Level PressureIn,VisibilityMPH,Wind Direction,Wind SpeedMPH,Gust SpeedMPH,PrecipitationIn,Events,Conditions,WindDirDegrees,DateUTC
12:00 AM,48.2,28.4,46,30.01,6.2,WSW,5.8,-,N/A,,Partly Cloudy,240,2013-03-14 23:00:00
12:30 AM,44.6,30.2,57,30.01,6.2,West,5.8,-,N/A,,Partly Cloudy,270,2013-03-14 23:30:00
1:00 AM,43,28,42,30.03,12,West,8.1,,,,Scattered Clouds,270,2013-03-15 00:00:00
1:00 AM,42.8,30.2,61,30.01,6.2,West,6.9,-,N/A,,Partly Cloudy,280,2013-03-15 00:00:00
1:30 AM,44.6,30.2,57,30.01,6.2,West,8.1,-,N/A,,Partly Cloudy,270,2013-03-15 00:30:00
2:00 AM,46.4,30.2,53,30.01,6.2,WNW,8.1,-,N/A,,Partly Cloudy,290,2013-03-15 01:00:00
2:30 AM,46.4,28.4,50,30.01,6.2,WNW,6.9,-,N/A,,Partly Cloudy,300,2013-03-15 01:30:00
3:00 AM,48.2,28.4,46,30.01,6.2,WNW,9.2,-,N/A,,Partly Cloudy,290,2013-03-15 02:00:00
3:30 AM,50.0,28.4,43,30.01,6.2,WNW,8.1,-,N/A,,Partly Cloudy,290,2013-03-15 02:30:00
4:00 AM,50.0,28.4,43,30.01,6.2,WNW,10.4,-,N/A,,Partly Cloudy,290,2013-03-15 03:00:00
4:30 AM,50.0,28.4,43,30.01,6.2,WNW,10.4,-,N/A,,Partly Cloudy,300,2013-03-15 03:30:00
5:00 AM,50.0,26.6,40,30.01,6.2,WNW,15.0,-,N/A,,Partly Cloudy,300,2013-03-15 04:00:00
5:30 AM,50.0,28.4,43,29.98,6.2,WNW,17.3,-,N/A,,Partly Cloudy,300,2013-03-15 04:30:00
6:00 AM,48.2,28.4,46,29.98,6.2,WNW,23.0,-,N/A,,Partly Cloudy,290,2013-03-15 05:00:00
6:30 AM,48.2,28.4,46,30.01,6.2,WNW,16.1,-,N/A,,Partly Cloudy,290,2013-03-15 05:30:00
7:00 AM,47,26,30,30.04,19,West,13.8,,,,Clear,270,2013-03-15 06:00:00
7:30 AM,48.2,28.4,46,30.04,-9999.0,West,12.7,-,N/A,,Clear,270,2013-03-15 06:30:00
8:00 AM,50.0,28.4,43,30.04,-9999.0,WSW,5.8,-,N/A,,Clear,240,2013-03-15 07:00:00
8:30 AM,50.0,28.4,43,30.04,-9999.0,WSW,3.5,-,N/A,,Clear,240,2013-03-15 07:30:00
9:00 AM,51.8,28.4,41,30.06,-9999.0,WNW,11.5,-,N/A,,Clear,290,2013-03-15 08:00:00
9:30 AM,53.6,28.4,38,30.06,-9999.0,WNW,18.4,31.1,N/A,,Clear,300,2013-03-15 08:30:00
10:00 AM,55.4,28.4,36,30.06,-9999.0,WNW,17.3,-,N/A,,Clear,300,2013-03-15 09:00:00
10:30 AM,57.2,26.6,31,30.06,-9999.0,WNW,18.4,-,N/A,,Clear,300,2013-03-15 09:30:00
11:00 AM,59.0,28.4,31,30.06,-9999.0,WNW,16.1,-,N/A,,Clear,290,2013-03-15 10:00:00
11:30 AM,60.8,28.4,29,30.06,-9999.0,WNW,16.1,-,N/A,,Clear,290,2013-03-15 10:30:00
12:00 PM,60.8,24.8,25,30.06,-9999.0,West,12.7,-,N/A,,Clear,280,2013-03-15 11:00:00
12:30 PM,62.6,24.8,24,30.04,-9999.0,West,11.5,-,N/A,,Clear,280,2013-03-15 11:30:00
1:00 PM,62,20,10,30.06,31,West,11.5,,,,Clear,280,2013-03-15 12:00:00
1:00 PM,62.6,23.0,22,30.04,-9999.0,WNW,10.4,-,N/A,,Clear,290,2013-03-15 12:00:00
1:30 PM,62.6,30.2,30,30.04,-9999.0,Variable,3.5,-,N/A,,Clear,0,2013-03-15 12:30:00
2:00 PM,62.6,28.4,27,30.04,-9999.0,East,12.7,24.2,N/A,,Clear,100,2013-03-15 13:00:00
2:30 PM,64.4,24.8,22,30.04,-9999.0,SSE,9.2,-,N/A,,Clear,160,2013-03-15 13:30:00
3:00 PM,64.4,30.2,28,30.01,-9999.0,Variable,5.8,-,N/A,,Clear,0,2013-03-15 14:00:00
3:30 PM,62.6,33.8,34,30.04,-9999.0,East,12.7,-,N/A,,Clear,100,2013-03-15 14:30:00
4:00 PM,62.6,35.6,37,30.04,-9999.0,East,10.4,-,N/A,,Clear,100,2013-03-15 15:00:00
4:30 PM,62.6,32.0,32,30.04,-9999.0,East,11.5,-,N/A,,Clear,100,2013-03-15 15:30:00
5:00 PM,59.0,41.0,51,30.04,-9999.0,East,15.0,-,N/A,,Clear,90,2013-03-15 16:00:00
5:30 PM,59.0,41.0,51,30.04,-9999.0,East,11.5,-,N/A,,Clear,100,2013-03-15 16:30:00
6:00 PM,57.2,46.4,67,30.04,-9999.0,East,9.2,-,N/A,,Clear,80,2013-03-15 17:00:00
6:30 PM,57.2,46.4,67,30.04,-9999.0,NE,9.2,-,N/A,,Clear,40,2013-03-15 17:30:00
7:00 PM,55,44,58,30.06,25,NE,10.4,,,,Clear,40,2013-03-15 18:00:00
7:00 PM,55.4,48.2,77,30.04,-9999.0,NE,10.4,-,N/A,,Clear,40,2013-03-15 18:00:00
7:30 PM,55.4,46.4,72,30.06,-9999.0,NNE,10.4,-,N/A,,Clear,30,2013-03-15 18:30:00
8:00 PM,55.4,46.4,72,30.06,-9999.0,NNE,9.2,-,N/A,,Clear,30,2013-03-15 19:00:00
8:30 PM,53.6,46.4,77,30.06,-9999.0,NNE,9.2,-,N/A,,Clear,20,2013-03-15 19:30:00
9:00 PM,51.8,42.8,71,30.06,-9999.0,North,9.2,-,N/A,,Clear,360,2013-03-15 20:00:00
9:30 PM,51.8,41.0,67,30.06,-9999.0,North,6.9,-,N/A,,Clear,360,2013-03-15 20:30:00
10:30 PM,50.0,41.0,71,30.06,-9999.0,North,4.6,-,N/A,,Clear,360,2013-03-15 21:30:00
11:00 PM,50.0,41.0,71,30.06,-9999.0,North,5.8,-,N/A,,Clear,350,2013-03-15 22:00:00
11:30 PM,50.0,41.0,71,30.09,-9999.0,NNW,6.9,-,N/A,,Clear,340,2013-03-15 22:30:00